Wind_Speed
4 3 3 3 2 0 1 5 8 11 10 10 10 10 8 8 9 10 10 10 9 8 8 8 8 8 8 8 7 7 6 6 6 6 6 6 6 6 7 7 6 6 7 7 7 8 8 8 8
4 4 4 3 1 3 5 7 10 12 12 11 11 11 9 9 10 10 10 10 9 8 8 8 9 9 8 8 8 8 8 7 7 7 7 7 7 7 7 7 7 7 7 8 8 8 8 9 8
5 5 5 3 4 6 7 8 12 12 13 11 11 10 10 11 11 10 11 11 10 9 9 9 10 9 9 8 8 8 9 8 8 7 7 7 7 7 7 7 8 8 8 8 9 9 9 9 9
6 6 5 4 5 7 9 11 12 13 12 11 10 10 11 11 11 10 10 10 10 9 10 10 10 10 10 9 9 9 10 9 8 8 8 8 8 8 8 8 9 9 9 9 9 9 9 10 10
7 6 5 5 5 9 12 13 13 12 12 12 12 11 11 11 11 11 11 10 10 11 11 11 10 10 10 10 10 10 10 9 9 8 8 8 9 9 9 9 10 9 9 9 9 9 10 10 10
7 6 7 6 8 12 14 14 12 12 13 13 12 11 11 11 11 11 11 10 11 11 11 12 12 11 11 11 11 11 10 9 9 9 8 8 9 9 10 10 10 10 9 9 10 10 10 10 10
7 7 6 6 9 14 15 15 14 12 14 15 13 13 13 12 11 11 11 10 11 11 11 12 13 12 11 11 11 11 10 10 10 9 9 10 10 10 10 11 11 11 11 11 11 11 11 11 10
8 8 7 7 9 14 16 15 13 12 13 13 13 13 13 12 12 11 11 11 12 12 12 12 12 11 10 10 10 10 11 11 11 11 11 11 11 11 11 11 11 11 12 12 12 12 12 12 12
8 8 8 8 9 14 16 16 15 14 13 14 14 14 13 12 12 12 11 12 13 13 13 13 13 11 11 10 10 10 12 12 12 12 12 12 12 12 11 11 11 12 12 13 12 13 13 13 13
9 10 9 9 11 14 16 16 14 14 13 13 14 15 14 11 11 12 12 12 13 13 13 14 13 12 12 11 10 11 12 13 13 13 12 12 12 12 12 12 12 13 13 13 13 13 13 14 14
11 12 10 11 12 15 16 15 15 15 13 13 14 15 14 12 12 12 12 12 13 13 13 13 12 12 12 12 12 12 13 13 13 13 13 13 13 13 13 14 14 15 15 15 14 14 14 15 15
13 13 13 14 14 16 16 16 16 16 14 14 14 16 16 15 14 13 13 13 13 13 12 12 12 11 12 13 13 14 13 13 13 14 14 14 14 14 15 15 15 16 15 15 15 15 15 15 15
14 14 13 13 13 15 16 16 16 15 13 14 14 15 16 15 15 14 14 14 14 14 13 13 12 12 13 14 13 12 13 13 14 14 15 15 15 16 16 17 17 16 15 15 16 16 15 15 15
12 13 14 14 14 16 16 15 15 13 13 14 14 15 15 16 15 16 15 15 15 15 15 15 14 13 13 13 13 14 14 14 14 14 14 14 15 16 16 16 17 17 16 16 16 16 15 15 15
12 14 14 14 15 15 16 16 13 13 15 16 16 16 16 17 16 16 16 15 16 16 16 16 15 14 14 14 14 14 15 14 15 15 16 15 15 15 16 16 17 17 16 15 16 16 16 16 15
12 14 14 14 14 14 15 16 13 14 16 17 17 16 16 17 17 16 16 16 16 17 16 17 16 15 15 16 15 15 16 15 16 17 17 17 15 15 16 17 17 17 16 16 16 16 16 16 16
13 14 14 15 14 15 15 16 16 15 16 17 17 17 17 18 17 16 16 16 17 17 17 18 18 17 17 17 16 16 16 17 17 18 18 17 16 16 16 16 17 17 16 16 16 16 16 16 16
13 12 13 15 14 14 16 17 17 16 17 16 16 17 18 17 17 16 16 17 17 17 17 18 18 18 17 17 17 17 17 17 18 18 18 17 17 17 16 16 16 17 17 16 16 16 17 17 17
14 14 14 14 14 14 16 17 18 18 17 17 17 17 17 17 18 17 16 16 17 17 17 18 18 16 17 17 17 18 18 18 18 18 18 18 18 17 17 17 16 16 17 17 17 17 17 18 18
15 14 14 14 13 14 16 18 18 18 17 18 16 15 16 17 17 17 17 17 17 18 18 18 18 17 18 18 19 19 19 19 19 18 19 18 17 17 17 17 16 17 17 17 16 16 17 18 17
15 15 15 15 14 15 16 18 18 17 19 17 16 16 17 17 17 18 18 18 18 19 19 19 18 18 19 19 19 19 20 19 19 19 18 18 17 18 18 18 17 17 17 17 17 16 16 16 18
17 15 16 15 16 17 16 18 19 19 20 18 18 18 18 18 19 19 18 18 19 19 19 19 18 18 19 19 19 19 19 19 19 19 18 18 18 18 18 18 18 18 17 18 18 17 16 16 17
15 14 16 16 17 18 17 17 18 20 19 18 18 18 18 18 19 19 20 19 19 19 19 19 18 18 18 18 18 18 18 18 19 19 19 18 18 18 18 19 19 19 18 18 18 17 17 17 17
14 14 15 15 17 20 18 18 18 19 18 18 19 19 17 19 20 20 21 20 20 20 20 19 19 18 18 18 18 18 18 18 19 19 19 19 19 18 19 18 18 19 18 18 17 18 17 17 18
16 15 15 17 18 19 17 17 19 19 19 19 19 19 18 19 20 20 20 20 20 20 19 19 19 18 18 18 18 19 19 18 18 19 19 19 18 18 18 18 19 19 18 17 16 17 17 18 18
17 17 17 19 18 18 17 18 20 19 19 19 18 18 18 19 19 19 19 19 19 20 20 19 19 19 18 18 18 18 18 18 18 18 19 19 18 18 18 18 19 18 17 17 17 17 17 18 18
20 19 18 20 19 19 17 18 19 18 20 20 18 17 18 18 18 18 18 18 19 19 19 19 19 19 18 18 18 18 18 18 18 18 18 18 18 18 18 18 18 17 17 17 18 17 17 18 18
20 20 19 20 21 22 19 17 18 17 19 18 19 19 18 18 19 18 18 18 18 18 19 18 18 18 18 18 18 18 18 18 18 18 18 17 16 16 17 18 17 17 17 17 17 17 17 17 18
20 20 20 19 19 21 18 17 18 18 19 19 21 19 19 19 19 19 18 18 18 18 18 18 17 17 17 17 17 17 17 18 18 19 18 17 17 17 17 17 16 16 16 17 17 17 17 17 17
21 21 20 20 19 21 21 20 19 20 21 22 21 20 20 20 19 19 18 19 19 19 18 18 17 17 17 17 17 17 17 18 18 19 19 18 17 17 17 16 16 17 17 17 17 17 17 17 17
Wind_Direction
239 231 219 216 209 52 246 263 270 272 272 276 277 275 270 270 276 284 291 300 304 302 304 301 298 303 302 287 275 272 272 277 274 266 261 256 253 253 256 256 255 253 251 252 254 256 259 264 264
235 229 224 221 223 266 258 259 265 269 271 274 278 279 275 276 278 284 289 299 302 301 301 299 300 301 299 290 281 278 276 279 274 268 266 256 251 253 257 260 261 259 258 257 256 257 261 264 264
232 227 226 224 254 273 270 263 268 274 273 275 280 281 278 278 280 284 287 294 300 299 298 295 295 297 295 291 286 283 280 283 279 273 266 257 255 258 261 263 263 264 264 263 263 262 262 265 264
234 228 226 235 257 270 277 276 271 277 281 276 278 278 276 278 281 285 288 291 297 300 302 300 295 291 290 289 285 284 283 282 281 277 267 262 262 268 268 266 265 265 264 265 266 264 263 265 265
226 223 234 236 247 257 259 262 268 271 277 276 276 276 275 277 283 287 290 293 295 298 302 302 299 293 289 288 287 285 282 277 277 277 270 268 271 271 272 271 273 271 269 267 266 266 265 267 265
224 223 240 247 262 263 262 270 271 270 269 273 274 274 277 281 284 287 287 288 295 299 302 301 301 298 293 289 285 283 278 273 276 279 276 273 272 274 274 277 277 276 275 272 271 269 268 268 266
232 235 238 245 264 268 272 270 267 266 268 270 273 277 278 281 282 286 286 287 295 300 302 303 300 299 298 293 283 279 277 276 277 280 278 276 274 274 276 279 280 279 279 277 275 272 271 268 265
233 236 241 242 255 270 274 271 267 264 268 273 277 278 278 283 279 283 287 289 292 298 301 302 299 302 302 298 288 283 277 276 279 279 277 278 279 279 278 279 281 283 283 282 275 273 271 270 267
237 239 243 247 253 265 269 271 271 268 266 273 278 279 282 284 282 282 288 292 291 294 299 303 300 302 302 300 292 284 279 277 279 278 277 277 280 280 279 277 277 281 282 280 276 271 272 271 269
245 247 246 245 248 260 265 267 269 267 267 273 276 282 284 283 283 282 287 292 294 297 298 298 302 302 302 299 290 285 282 279 279 278 277 276 278 280 281 280 280 280 278 277 276 272 274 273 271
249 250 248 244 249 259 266 269 269 268 266 269 275 281 282 283 289 290 289 292 297 300 297 297 299 301 294 289 290 285 284 283 283 282 280 279 279 280 280 280 281 280 277 276 274 273 275 274 269
250 251 250 253 256 260 266 270 268 264 265 271 276 279 279 282 287 289 289 291 293 295 294 298 293 292 293 288 285 283 286 288 286 287 286 284 286 286 284 284 284 280 276 275 274 274 275 274 270
252 252 254 257 261 268 270 271 268 265 266 270 265 275 281 282 284 286 287 291 291 290 290 295 303 302 297 289 289 286 288 290 290 290 290 290 290 291 288 286 286 283 278 276 274 273 274 271 270
255 256 255 260 262 268 275 273 269 265 265 269 271 278 281 284 286 286 287 290 292 293 291 297 300 303 297 294 290 289 294 295 293 292 291 292 290 290 289 287 287 286 283 280 275 272 270 269 267
249 255 258 260 264 270 276 274 272 269 264 270 278 281 280 283 286 286 287 288 291 293 293 292 293 297 295 293 289 288 289 291 291 294 294 291 289 288 287 288 289 286 284 283 279 273 269 267 265
251 258 262 260 262 267 273 273 273 271 269 271 275 277 278 278 283 288 289 290 290 293 292 294 295 295 293 291 289 289 291 290 289 293 294 291 289 290 289 290 290 285 281 281 280 277 271 268 266
252 254 265 269 264 262 269 270 271 274 271 272 273 274 275 277 283 287 289 290 289 291 292 294 295 293 291 290 289 290 291 290 290 291 291 289 288 291 292 291 290 287 283 282 278 274 271 267 267
256 256 264 266 266 261 267 267 271 274 271 272 274 277 278 280 282 285 288 289 289 291 292 293 293 292 288 286 285 288 291 292 292 292 288 288 292 291 291 291 292 290 288 285 279 272 267 266 267
259 256 256 258 264 263 266 270 271 275 275 275 274 275 278 283 284 285 285 287 288 290 292 295 295 290 288 286 286 287 290 292 294 293 291 290 291 292 291 290 291 291 289 287 281 275 269 266 267
252 257 255 249 254 263 268 271 275 276 273 275 277 279 279 281 284 285 284 287 287 289 292 294 294 289 288 289 287 286 290 292 292 292 292 291 292 293 294 292 290 289 291 289 284 277 274 272 269
250 253 255 252 254 255 259 265 271 275 278 283 281 279 281 283 286 285 284 286 287 288 289 290 292 291 290 289 288 289 290 291 292 293 292 291 292 291 293 292 290 290 291 290 286 281 277 276 273
252 252 254 253 253 252 254 261 268 274 277 280 280 280 282 284 286 286 286 284 285 286 286 288 291 291 291 291 291 289 288 289 291 293 293 292 291 291 293 291 290 290 288 287 286 282 276 274 274
252 249 252 255 255 256 254 258 268 275 279 283 284 282 282 283 284 284 285 286 284 284 285 286 287 288 290 292 292 290 288 288 289 292 292 292 291 291 291 290 289 289 288 285 283 279 276 273 274
247 250 252 254 255 257 255 256 264 268 275 280 284 285 284 283 283 283 283 283 283 282 283 284 286 287 289 291 291 291 290 290 290 292 291 291 291 291 290 287 286 288 288 285 281 277 276 274 274
250 251 251 251 249 254 258 262 263 269 274 276 280 284 284 283 284 284 284 284 284 283 282 283 286 287 289 291 291 290 289 291 291 291 291 292 293 295 294 289 288 288 288 285 282 280 276 275 275
246 248 251 253 251 256 260 259 263 268 271 274 275 278 280 284 286 288 287 285 284 283 283 285 286 286 287 288 288 289 290 291 292 292 292 293 294 295 295 294 291 289 286 284 283 283 280 279 278
245 243 248 253 252 254 254 256 266 265 268 275 280 282 282 285 289 289 288 285 285 284 284 284 287 287 286 286 286 287 290 290 292 291 291 294 294 294 295 297 295 290 286 285 285 283 282 280 278
250 246 247 249 251 253 254 259 267 274 273 273 278 280 284 288 291 290 287 287 285 285 284 284 284 284 285 286 287 288 289 293 293 292 291 293 295 296 298 298 296 292 288 287 284 282 282 279 277
249 246 247 250 251 252 255 257 259 272 276 278 280 280 284 290 291 291 289 288 287 286 284 282 282 282 284 284 286 286 287 290 291 291 292 291 292 295 298 297 296 294 291 286 282 282 282 280 278
249 249 246 249 250 253 251 255 258 264 272 278 280 282 286 287 288 290 289 289 288 288 286 282 280 281 282 282 284 285 288 290 292 292 291 290 290 291 294 296 297 296 294 290 286 285 285 285 283
Height
5887 5888 5888 5889 5890 5889 5890 5892 5892 5890 5889 5888 5888 5887 5887 5886 5887 5888 5884 5883 5883 5883 5882 5881 5881 5880 5879 5878 5878 5878 5878 5878 5877 5877 5877 5877 5877 5877 5877 5877 5877 5877 5877 5877 5878 5878 5878 5878 5878
5886 5887 5887 5888 5888 5889 5890 5890 5890 5889 5888 5886 5886 5885 5885 5884 5884 5884 5883 5882 5882 5882 5881 5880 5880 5879 5879 5878 5877 5877 5877 5876 5876 5876 5875 5875 5875 5875 5875 5876 5876 5876 5876 5876 5876 5876 5877 5877 5877
5885 5886 5886 5887 5887 5889 5889 5887 5888 5887 5886 5884 5884 5884 5884 5883 5883 5882 5881 5881 5881 5880 5880 5879 5879 5878 5877 5877 5876 5876 5875 5875 5874 5874 5874 5874 5874 5874 5874 5874 5874 5874 5874 5874 5874 5874 5875 5875 5875
5883 5885 5885 5886 5887 5888 5887 5886 5886 5885 5884 5883 5883 5883 5882 5881 5881 5881 5880 5880 5879 5879 5878 5878 5877 5877 5876 5875 5875 5874 5874 5873 5873 5872 5872 5872 5872 5872 5872 5872 5872 5872 5872 5872 5872 5872 5873 5873 5873
5882 5883 5884 5884 5886 5887 5886 5883 5884 5884 5882 5881 5881 5881 5880 5880 5879 5879 5879 5878 5878 5878 5877 5876 5876 5875 5874 5874 5873 5873 5872 5872 5871 5871 5870 5870 5870 5870 5870 5870 5871 5871 5871 5870 5871 5871 5871 5871 5871
5880 5881 5883 5883 5885 5885 5884 5882 5881 5882 5881 5879 5879 5878 5878 5877 5878 5878 5877 5876 5876 5876 5875 5875 5874 5873 5873 5872 5872 5871 5870 5870 5869 5869 5869 5869 5868 5868 5868 5869 5869 5869 5869 5869 5869 5869 5869 5869 5869
5878 5879 5880 5881 5883 5883 5881 5880 5879 5880 5878 5876 5876 5876 5875 5875 5876 5876 5876 5875 5874 5874 5874 5873 5872 5872 5871 5870 5869 5869 5869 5868 5868 5867 5867 5867 5867 5867 5866 5867 5867 5867 5867 5866 5866 5866 5867 5867 5867
5876 5878 5878 5879 5881 5880 5879 5877 5876 5876 5876 5873 5873 5874 5873 5873 5874 5874 5874 5873 5873 5872 5872 5871 5870 5870 5869 5868 5867 5867 5867 5866 5866 5866 5866 5865 5865 5865 5864 5864 5865 5865 5864 5864 5864 5864 5864 5864 5865
5873 5875 5875 5877 5878 5877 5876 5875 5874 5873 5874 5873 5872 5871 5871 5871 5871 5872 5872 5872 5871 5870 5869 5868 5868 5868 5867 5867 5866 5865 5865 5864 5864 5864 5864 5863 5863 5863 5862 5862 5862 5862 5862 5861 5861 5861 5861 5862 5862
5871 5872 5873 5874 5874 5874 5872 5872 5871 5870 5871 5871 5870 5870 5868 5869 5869 5870 5871 5870 5869 5868 5867 5866 5865 5866 5865 5864 5862 5862 5863 5862 5862 5862 5861 5861 5860 5860 5860 5859 5859 5859 5859 5859 5858 5858 5858 5859 5859
5869 5870 5870 5871 5870 5870 5869 5869 5869 5868 5868 5869 5868 5868 5868 5868 5868 5869 5869 5868 5867 5866 5864 5863 5863 5862 5862 5862 5860 5860 5860 5860 5859 5859 5859 5858 5858 5857 5857 5857 5856 5856 5856 5856 5856 5856 5856 5855 5856
5866 5867 5867 5867 5868 5867 5867 5866 5866 5865 5866 5866 5865 5866 5866 5867 5867 5867 5866 5866 5865 5863 5862 5862 5862 5861 5860 5859 5858 5858 5858 5857 5857 5856 5856 5856 5855 5855 5854 5853 5853 5852 5852 5852 5852 5852 5852 5852 5852
5863 5864 5864 5865 5864 5864 5864 5864 5864 5863 5864 5863 5863 5863 5864 5864 5865 5864 5864 5863 5863 5862 5861 5860 5859 5858 5857 5857 5855 5854 5855 5855 5854 5854 5853 5853 5852 5851 5851 5850 5850 5849 5848 5848 5848 5848 5848 5848 5848
5860 5861 5861 5861 5862 5862 5861 5861 5861 5861 5862 5861 5860 5861 5862 5862 5862 5862 5862 5861 5860 5860 5859 5858 5857 5856 5855 5854 5854 5852 5852 5852 5852 5851 5850 5850 5849 5848 5847 5847 5846 5845 5844 5844 5844 5844 5844 5844 5844
5857 5858 5858 5859 5859 5860 5860 5859 5859 5860 5859 5858 5858 5859 5859 5859 5859 5859 5859 5859 5858 5857 5857 5856 5855 5854 5853 5852 5851 5851 5850 5850 5849 5849 5847 5846 5845 5845 5844 5843 5842 5841 5840 5840 5839 5839 5840 5840 5841
5852 5853 5854 5856 5856 5857 5859 5857 5857 5857 5857 5856 5857 5857 5857 5856 5856 5856 5856 5856 5855 5855 5854 5853 5852 5851 5850 5849 5848 5848 5847 5847 5846 5845 5844 5842 5842 5841 5840 5839 5838 5837 5836 5836 5836 5835 5836 5836 5837
5850 5850 5852 5853 5854 5854 5855 5854 5855 5854 5854 5854 5854 5854 5854 5853 5853 5853 5853 5853 5852 5852 5851 5850 5849 5848 5848 5847 5846 5845 5844 5844 5843 5842 5841 5840 5839 5838 5837 5836 5835 5833 5832 5832 5832 5832 5832 5833 5833
5848 5849 5850 5851 5852 5851 5852 5852 5852 5852 5851 5851 5851 5851 5851 5849 5850 5850 5850 5849 5849 5848 5848 5847 5845 5845 5844 5843 5842 5842 5841 5840 5839 5838 5837 5836 5835 5834 5833 5832 5831 5830 5829 5828 5828 5828 5828 5829 5829
5845 5847 5848 5849 5850 5849 5849 5849 5849 5848 5848 5848 5848 5848 5848 5847 5846 5846 5846 5846 5846 5845 5845 5843 5842 5841 5840 5840 5839 5838 5838 5837 5836 5835 5834 5833 5832 5831 5830 5829 5828 5827 5826 5825 5824 5824 5824 5825 5825
5842 5843 5845 5846 5846 5847 5847 5846 5846 5845 5845 5845 5844 5844 5844 5844 5843 5843 5843 5843 5842 5842 5841 5840 5839 5838 5837 5837 5836 5835 5834 5833 5832 5831 5830 5829 5828 5827 5826 5825 5824 5824 5823 5822 5821 5821 5820 5820 5820
5839 5840 5842 5843 5843 5844 5845 5844 5843 5843 5842 5842 5842 5841 5841 5841 5840 5839 5839 5840 5839 5838 5837 5837 5836 5835 5834 5833 5832 5831 5830 5830 5829 5828 5826 5825 5824 5823 5822 5821 5821 5820 5819 5818 5817 5817 5817 5816 5816
5835 5837 5838 5839 5840 5840 5841 5840 5840 5840 5839 5839 5839 5838 5838 5837 5837 5835 5834 5835 5835 5834 5834 5833 5832 5831 5830 5829 5828 5827 5827 5826 5825 5824 5823 5821 5820 5819 5818 5817 5817 5816 5815 5815 5814 5813 5813 5812 5812
5831 5834 5835 5835 5836 5836 5836 5837 5837 5835 5835 5835 5835 5835 5834 5834 5833 5832 5831 5831 5831 5831 5830 5829 5828 5828 5827 5826 5825 5824 5823 5822 5821 5820 5819 5818 5817 5815 5814 5813 5813 5812 5811 5810 5810 5809 5808 5808 5808
5828 5830 5830 5831 5832 5831 5832 5832 5833 5832 5832 5832 5831 5831 5831 5831 5830 5829 5828 5827 5827 5826 5826 5825 5825 5824 5823 5822 5821 5820 5819 5818 5817 5816 5815 5814 5813 5812 5810 5809 5808 5808 5807 5806 5805 5805 5804 5804 5803
5824 5825 5827 5827 5827 5827 5829 5829 5830 5829 5829 5829 5828 5828 5827 5826 5826 5825 5824 5823 5823 5822 5822 5821 5820 5820 5819 5818 5817 5816 5815 5814 5813 5812 5811 5809 5808 5807 5806 5805 5804 5803 5802 5801 5801 5800 5800 5799 5799
5820 5822 5824 5824 5824 5825 5826 5826 5825 5823 5825 5824 5823 5824 5824 5823 5822 5821 5820 5819 5818 5818 5817 5817 5816 5815 5815 5814 5813 5812 5811 5810 5809 5808 5807 5805 5804 5803 5802 5801 5799 5798 5797 5797 5796 5796 5795 5795 5794
5816 5817 5819 5820 5820 5821 5822 5822 5820 5819 5821 5820 5819 5819 5820 5819 5818 5817 5816 5815 5814 5813 5813 5812 5812 5811 5810 5810 5809 5808 5807 5806 5805 5804 5803 5801 5800 5799 5798 5796 5795 5794 5793 5792 5792 5791 5791 5790 5790
5813 5814 5815 5815 5816 5816 5817 5817 5817 5816 5815 5816 5815 5816 5815 5815 5814 5813 5811 5810 5810 5809 5808 5808 5807 5807 5806 5806 5805 5804 5803 5802 5801 5800 5799 5798 5796 5795 5794 5792 5791 5790 5789 5788 5787 5787 5786 5786 5785
5808 5810 5810 5811 5811 5812 5812 5814 5812 5811 5811 5811 5811 5811 5811 5810 5809 5808 5807 5806 5806 5805 5804 5803 5803 5802 5802 5802 5801 5800 5799 5798 5797 5796 5795 5794 5792 5791 5790 5788 5787 5786 5784 5783 5783 5782 5782 5781 5780
5804 5805 5807 5807 5807 5807 5807 5810 5807 5807 5807 5808 5807 5807 5807 5806 5805 5804 5802 5802 5801 5801 5800 5800 5799 5799 5798 5797 5797 5796 5795 5794 5793 5792 5790 5789 5788 5787 5785 5784 5783 5782 5780 5779 5778 5777 5777 5776 5776